PD2SKZ-12 Weather Reports


time (UTC)temp
C
wind
direction
speed
KPH
gust
KPH
rain 1hr
cm
rain 24hr
cm
rain mn
cm
humidity
%
barometer
mb
20260504081544 15 0.0 0.0 0.00 2.39 0.20 89 1014.5
20260504081042 16 0.0 0.0 0.00 2.39 0.20 89 1014.4
20260504080543 16 0.0 0.0 0.00 2.39 0.20 89 1014.4
20260504050544 12 0.0 0.0 0.20 2.59 0.20 98 1013.0
20260504045542 12 0.0 1.6 0.20 2.59 0.20 98 1012.9
20260504045042 12 0.0 0.0 0.20 2.59 0.20 98 1012.8
20260504044543 12 0.0 0.0 0.20 2.59 0.20 98 1012.7
20260504044043 12 0.0 0.0 0.20 2.59 0.20 98 1012.6
20260504043543 12 0.0 0.0 0.20 2.59 0.20 98 1012.7
20260504043042 12 0.0 0.0 0.20 2.59 0.20 98 1012.6
20260504042543 12 0.0 0.0 0.20 2.59 0.20 98 1012.6
20260504042043 12 0.0 0.0 0.20 2.59 0.20 98 1012.6
20260504041603 12 0.0 0.0 0.00 2.39 0.00 98 1012.6
20260504041042 12 0.0 0.0 0.00 2.39 0.00 98 1012.6
20260504040543 12 0.0 0.0 0.00 2.39 0.00 98 1012.6
20260504040043 12 0.0 0.0 0.00 2.39 0.00 98 1012.6
20260504035543 12 0.0 0.0 0.00 2.39 0.00 98 1012.6
20260504035043 12 0.0 0.0 0.00 2.39 0.00 98 1012.6
20260504034543 12 0.0 0.0 0.00 2.39 0.00 98 1012.7
20260504034042 12 0.0 0.0 0.00 2.39 0.00 98 1012.7
20260504033543 12 0.0 0.0 0.00 2.39 0.00 98 1012.7
20260504033045 12 0.0 0.0 0.00 2.39 0.00 98 1012.7
20260504032542 12 0.0 0.0 0.00 2.39 0.00 98 1012.7
20260504032043 12 0.0 0.0 0.00 2.39 0.00 98 1012.8
20260504031623 12 0.0 0.0 0.00 2.39 0.00 98 1012.8
20260504031043 12 0.0 0.0 0.00 2.39 0.00 98 1012.9
20260504030543 12 0.0 0.0 0.00 2.39 0.00 98 1012.9
20260504030043 11 0.0 0.0 0.00 2.39 0.00 98 1012.9
20260504025543 11 0.0 0.0 0.00 2.59 0.00 98 1012.9
20260504025044 11 0.0 0.0 0.00 2.59 0.00 98 1012.8
20260504024603 11 0.0 0.0 0.00 2.59 0.00 98 1012.7
20260504024103 11 0.0 0.0 0.00 2.79 0.00 98 1012.7
20260504023543 11 0.0 0.0 0.00 3.20 0.00 98 1012.7
20260504023043 11 0.0 0.0 0.00 3.20 0.00 98 1012.7
20260504022543 11 0.0 0.0 0.00 3.20 0.00 97 1012.7
20260504022043 11 0.0 0.0 0.00 3.20 0.00 97 1012.7
20260504021542 11 0.0 0.0 0.00 3.20 0.00 98 1012.6
20260504021043 11 0.0 0.0 0.00 3.20 0.00 97 1012.5
20260504020543 11 0.0 0.0 0.00 3.20 0.00 97 1012.5
20260504015605 11 0.0 0.0 0.00 3.20 0.00 97 1012.5
20260504015043 11 0.0 0.0 0.00 3.20 0.00 97 1012.5
20260504014543 11 0.0 0.0 0.00 3.40 0.00 97 1012.5
20260504014043 11 0.0 0.0 0.00 3.40 0.00 97 1012.4
20260504013543 11 0.0 0.0 0.00 3.61 0.00 97 1012.5
20260504013043 11 0.0 0.0 0.00 3.61 0.00 97 1012.5
20260504012543 11 0.0 0.0 0.00 3.61 0.00 97 1012.6
20260504012043 11 0.0 0.0 0.00 3.61 0.00 97 1012.6
20260504011543 11 0.0 0.0 0.00 3.61 0.00 97 1012.6
20260504011103 11 0.0 0.0 0.00 3.61 0.00 97 1012.6
20260504010543 11 0.0 0.0 0.00 3.61 0.00 97 1012.6
20260504010043 11 0.0 0.0 0.00 3.61 0.00 97 1012.6
20260504005543 11 0.0 0.0 0.00 3.61 0.00 97 1012.6
20260504005043 11 0.0 0.0 0.00 3.61 0.00 97 1012.6
20260504004603 11 0.0 0.0 0.00 3.61 0.00 97 1012.5
20260504004043 11 0.0 0.0 0.00 3.61 0.00 97 1012.5
20260504003543 12 0.0 0.0 0.00 3.61 0.00 97 1012.5
20260504003043 12 0.0 0.0 0.00 3.61 0.00 97 1012.5
20260504002623 12 0.0 0.0 0.00 3.61 0.00 97 1012.4
20260504002105 12 0.0 0.0 0.00 3.61 0.00 97 1012.5
20260504001543 12 0.0 0.0 0.00 3.61 0.00 97 1012.5
20260504001043 12 0.0 0.0 0.00 3.61 0.00 97 1012.5
20260504000543 12 0.0 0.0 0.00 3.61 0.00 97 1012.6
20260504000043 12 0.0 0.0 0.00 3.61 0.00 97 1012.7
20260503235543 12 0.0 0.0 0.00 3.61 0.00 97 1012.8
20260503235043 12 0.0 0.0 0.00 3.61 0.00 97 1012.7
20260503234543 12 0.0 0.0 0.00 3.61 0.00 97 1012.8
20260503234043 12 0.0 0.0 0.00 3.61 0.00 97 1012.7
20260503233543 12 0.0 0.0 0.00 3.61 0.00 96 1012.7
20260503233043 12 0.0 0.0 0.00 3.61 0.00 96 1012.7
20260503232543 12 0.0 0.0 0.00 3.61 0.00 96 1012.7
20260503232123 12 0.0 0.0 0.00 3.61 0.00 96 1012.7
20260503231543 13 0.0 0.0 0.00 3.61 0.00 96 1012.7
20260503231043 13 0.0 0.0 0.00 3.61 0.00 96 1012.7
20260503230543 13 0.0 0.0 0.00 3.61 0.00 96 1012.7
20260503230043 13 0.0 0.0 0.00 3.61 0.00 96 1012.6
20260503225543 13 0.0 0.0 0.00 3.61 0.00 96 1012.6
20260503225043 13 0.0 0.0 0.00 3.61 0.00 96 1012.6
20260503224543 13 0.0 1.6 0.00 3.61 0.00 96 1012.7
20260503224043 13 0.0 0.0 0.00 3.61 0.00 96 1012.7
20260503223543 13 0.0 0.0 0.00 3.61 0.00 96 1012.7
20260503223043 13 0.0 0.0 0.00 3.61 0.00 96 1012.6
20260503222543 13 0.0 0.0 0.00 3.61 0.00 96 1012.7
20260503222043 13 0.0 0.0 0.00 3.61 0.00 96 1012.7
20260503221543 13 0.0 0.0 0.00 3.61 0.00 96 1012.8
20260503221043 13 0.0 0.0 0.00 3.61 0.00 96 1012.7
20260503220543 13 0.0 0.0 0.00 3.61 0.00 96 1012.6
20260503220043 13 0.0 0.0 0.00 3.61 0.00 96 1012.6
20260503215603 13 0.0 0.0 0.00 3.61 3.61 96 1012.6
20260503215013 13 0.0 0.0 0.00 3.61 3.61 96 1012.6
20260503214443 13 0.0 0.0 0.00 3.61 3.61 96 1012.5
20260503213943 13 0.0 0.0 0.00 3.61 3.61 96 1012.5
20260503213443 13 0.0 0.0 0.00 3.81 3.61 95 1012.5
20260503212943 13 0.0 0.0 0.00 3.81 3.61 95 1012.6
20260503212443 13 0.0 0.0 0.00 3.99 3.61 95 1012.6
20260503211943 13 0.0 0.0 0.00 4.19 3.61 95 1012.5
20260503211503 13 0.0 0.0 0.00 4.39 3.61 95 1012.5
20260503210943 13 0.0 0.0 0.00 4.80 3.61 95 1012.5
20260503210443 13 0.0 0.0 0.00 5.21 3.61 95 1012.4
20260503205943 13 0.0 0.0 0.00 5.41 3.61 95 1012.4
20260503205443 13 0.0 0.0 0.00 5.79 3.61 95 1012.4
20260503204943 13 158 0.0 1.6 0.00 6.60 3.61 95 1012.4
20260503204523 13 0.0 3.2 0.00 8.20 3.61 95 1012.4
20260503203943 13 0.0 0.0 0.00 8.79 3.61 95 1012.5
20260503203413 14 119 4.8 4.8 0.00 8.79 3.61 95 1012.5
20260503202813 14 0.0 1.6 0.00 8.79 3.61 94 1012.5
20260503202243 14 150 1.6 6.4 0.00 8.79 3.61 94 1012.5
20260503201804 14 0.0 4.8 0.00 8.79 3.61 94 1012.4
20260503201243 14 0.0 3.2 0.00 8.79 3.61 94 1012.3
20260503200804 14 0.0 0.0 0.00 8.79 3.61 94 1012.3
20260503200243 14 0.0 3.2 0.00 8.79 3.61 94 1012.4
20260503195744 14 128 1.6 3.2 0.00 8.79 3.61 94 1012.2
20260503195304 14 127 1.6 3.2 0.00 8.79 3.61 94 1012.1
20260503194743 14 0.0 3.2 0.00 8.79 3.61 93 1012.0
20260503194243 14 0.0 0.0 0.00 8.79 3.61 93 1012.0
20260503193713 14 0.0 1.6 0.00 8.79 3.61 93 1012.0
20260503193113 14 0.0 0.0 0.00 8.79 3.61 93 1011.8
20260503192543 14 0.0 0.0 0.00 8.79 3.61 93 1011.7
20260503192043 15 0.0 0.0 0.00 8.79 3.61 93 1011.7
20260503191543 15 0.0 0.0 0.00 8.79 3.61 93 1011.6
20260503191104 15 0.0 0.0 0.00 8.79 3.61 92 1011.6
20260503190544 15 162 1.6 1.6 0.00 8.79 3.61 92 1011.5
20260503190043 15 0.0 0.0 0.20 8.79 3.61 92 1011.4
20260503185543 15 0.0 3.2 0.20 8.79 3.61 91 1011.4
20260503185043 15 133 1.6 3.2 0.20 8.79 3.61 91 1011.4
20260503184544 15 0.0 0.0 0.20 8.79 3.61 92 1011.5
20260503184013 15 0.0 3.2 0.20 8.79 3.61 92 1011.4
20260503183414 15 0.0 1.6 0.20 8.79 3.61 92 1011.3
20260503182843 15 0.0 0.0 0.20 8.79 3.61 92 1011.4
20260503182343 15 0.0 1.6 0.20 8.79 3.61 92 1011.3
20260503181843 15 0.0 0.0 0.20 8.79 3.61 92 1011.2
20260503181344 15 189 0.0 3.2 0.20 8.79 3.61 92 1011.1
20260503180843 15 0.0 0.0 0.20 8.79 3.61 92 1011.1
20260503180343 16 0.0 0.0 0.00 8.61 3.40 92 1011.1
20260503175844 16 156 1.6 3.2 0.00 8.61 3.40 92 1011.0
20260503175343 16 0.0 0.0 0.00 8.61 3.40 92 1011.1
20260503174903 16 0.0 0.0 0.00 8.61 3.40 92 1011.1
20260503174314 16 0.0 0.0 0.00 8.61 3.40 91 1011.0
20260503173713 16 0.0 0.0 0.00 8.61 3.40 91 1011.0
20260503173144 16 0.0 0.0 0.00 8.61 3.40 90 1011.0
20260503172704 16 0.0 0.0 0.00 8.61 3.40 90 1010.9
20260503172143 16 0.0 0.0 0.00 8.61 3.40 89 1010.9
20260503171644 16 0.0 1.6 0.00 8.61 3.40 89 1010.8
20260503171143 16 0.0 0.0 0.00 8.61 3.40 89 1010.9
20260503170643 16 0.0 1.6 0.00 8.61 3.40 89 1010.9
20260503170144 17 0.0 0.0 0.00 8.61 3.40 88 1011.0
20260503150543 17 0.0 6.4 0.00 8.61 3.40 83 1011.0
20260503131044 15 0.0 0.0 0.00 8.61 3.40 91 1011.6
20260503130604 15 0.0 0.0 0.00 8.61 3.40 91 1011.6
20260503110544 16 317 1.6 6.4 0.41 8.61 3.40 93 1011.8